Location: Fort Wayne
(41.1310°N, 85.1290°W)
Time: 09:24:39
(UTC-04:00)

SR - Visible Passes

Search period start: 16 September 2014 00:00
Search period end: 26 September 2014 00:00
Orbit: 575 x 890 km, 66.7° (Epoch: 09 September)

Date Brightness Start Highest point End Pass type
(mag) Time Alt. Az. Time Alt. Az. Time Alt. Az.
16 Sep ? 02:17:52 15° N 02:17:52 15° N 02:19:07 10° N visible
17 Sep ? 01:30:46 12° NNE 01:30:46 12° NNE 01:31:14 10° NNE visible
17 Sep ? 03:10:16 10° NNW 03:10:16 10° NNW 03:10:25 10° NNW visible
18 Sep ? 02:23:09 12° N 02:23:09 12° N 02:24:04 10° N visible
19 Sep ? 01:36:00 12° N 01:36:00 12° N 01:36:31 10° N visible
19 Sep ? 06:45:38 10° NNE 06:47:27 11° NNE 06:49:13 10° NE visible
21 Sep ? 01:41:09 11° N 01:41:09 11° N 01:41:27 10° N visible
21 Sep ? 06:49:59 10° N 06:53:50 18° NE 06:57:31 10° E visible
22 Sep ? 06:03:00 10° NNE 06:04:51 11° NNE 06:06:40 10° NE visible
23 Sep ? 06:55:03 10° NNW 07:00:00 29° NE 07:04:39 10° ESE visible
24 Sep ? 06:07:21 10° N 06:11:13 18° NE 06:14:55 10° E visible
25 Sep ? 05:20:21 10° NNE 05:22:14 12° NNE 05:24:05 10° NE visible
25 Sep ? 07:00:23 10° NNW 07:05:57 50° NE 07:11:04 10° SE visible
